Tracking 17145 objects as of 23-May-2015
HD Live streaming from Space Station

SSTI LEWIS


SSTI LEWIS is no longer on orbit
SSTI LEWIS is classified as:


NORAD ID: 24909
Int'l Code: 1997-044A
Perigee: N/A
Apogee: N/A
Inclination: N/A
Period: N/A
Semi major axis: N/A
RCS: N/A
Launch date: August 23, 1997
Source: United States (US)
Decay date: 1997-09-28
Your satellite tracking list
Your tracking list is empty





NASA's NSSDC Master Catalog

Two Line Element Set (TLE):
1 24909U 97044A   97271.44411130  .76962935  35391-5  50335-3 0  9994
2 24909 097.5354 169.9687 0007458 214.6086 146.2240 16.53904023  5777

Source of the keplerian elements: AFSPC

N2YO: 288